SL-16 DEB

基本信息
目录编号:
25254
目录名称:
SL-16 DEB
国际标识:
1993-059H
轨道中心:
EARTH
物体状态:
在轨
发射日期:
1993-09-16 UTC
轨道信息
数据来源: 国际轨道数据
星历时间: 2026-07-27T14:52:06+0800
半长轴: 7190.91km
偏心率: 0.0017859
轨道倾角: 70.988°
近地点辐角: 268.183°
升交点赤经: 302.706°
平近点角: 123.223°
近地点: 799.93km
远地点: 825.616km
周期: 101.143分钟
每日圈数: 14.237281
详细信息
发射场:
TTMTR
轨道高度:
LEO
数据来源:
AOE Integration Group
参考系:
TEME
时间系统:
UTC
历元类型:
SGP4
2D轨道图
3D轨道图
轨道高度分析图
轨道倾角分析图
轨道综合分析图
查看轨道综合分析图